Weather History for KFOT - July, 2013

Change the Weather History Date:

Sunday, July 28, 2013

  Actual Average (KEKA) Record (KEKA)
Temperature  
Mean Temperature 56 °F 58 °F  
Max Temperature 62 °F 64 °F 77 °F (2015)
Min Temperature 50 °F 53 °F 48 °F (1954)
Degree Days  
Heating Degree Days 9 7  
Month to date heating degree days 207  
Since 1 June heating degree days 473  
Since 1 July heating degree days 207  
Cooling Degree Days 0 0  
Month to date cooling degree days 0  
Year to date cooling degree days 0  
Since 1 June cooling degree days 0  
Growing Degree Days 6 (Base 50)    
Moisture  
Dew Point 50 °F    
Average Humidity 86    
Maximum Humidity 100    
Minimum Humidity 68    
Precipitation  
Precipitation 0.00 in 0.01 in 0.07 in (2012)
Month to date precipitation 0.17  
Year to date precipitation 23.45  
Snow  
Snow 0.00 in 0.00 in - ()
Month to date snowfall 0.0  
Since 1 June snowfall 0.0  
Since 1 July snowfall 0.0  
Snow Depth -    
Sea Level Pressure  
Sea Level Pressure 29.93 in    
Wind  
Wind Speed - (North)    
Max Wind Speed -    
Max Gust Speed -    
Visibility 7 miles    
Events      
T = Trace of Precipitation, MM = Missing Value Source: NWS Daily Summary

Daily Weather History Graph

Daily Weather History Graph

Search for Another Location

Airport or City:

Trip Planner

Search our weather history database for the weather conditions in past years. The results will help you decide how hot, cold, wet, or windy it might be!

Date:

Astronomy

Jul. 28, 2013 Rise Set
Actual Time 6:10 AM PDT 8:35 PM PDT
Civil Twilight 5:39 AM PDT 9:06 PM PDT
Nautical Twilight 5:00 AM PDT 9:44 PM PDT
Astronomical Twilight 4:17 AM PDT 10:26 PM PDT
Moon 11:58 PM PDT (7/28) 1:00 PM PDT (7/28)
Length of Visible Light 15h 27m
Length of Day
14h 25m
Waning Gibbous, 60% of the Moon is Illuminated
Jul 28
Waning Gibbous
Jul 29
Last Quarter
Aug 6
New
Aug 14
First Quarter
Aug 20
Full

Hourly Weather History & Observations

Time (PDT) Temp. Dew Point Humidity Pressure Visibility Wind Dir Wind Speed Gust Speed Precip Events Conditions
12:15 AM 51.8 °F 50.0 °F 94% 29.97 in 7.0 mi North - - N/A   Overcast
12:35 AM 51.8 °F 50.0 °F 94% 29.96 in 7.0 mi North - - N/A   Overcast
12:55 AM 51.8 °F 50.0 °F 94% 29.95 in 7.0 mi North - - N/A   Overcast
1:15 AM 51.8 °F 50.0 °F 94% 29.95 in 7.0 mi North - - N/A   Overcast
1:35 AM 53.6 °F 50.0 °F 88% 29.95 in 7.0 mi North - - N/A   Overcast
1:55 AM 53.6 °F 50.0 °F 88% 29.94 in 7.0 mi North - - N/A   Overcast
2:15 AM 53.6 °F 50.0 °F 88% 29.93 in 7.0 mi North - - N/A   Overcast
2:35 AM 51.8 °F 50.0 °F 94% 29.93 in 8.0 mi North - - N/A   Overcast
2:55 AM 53.6 °F 50.0 °F 88% 29.93 in 7.0 mi North - - N/A   Overcast
3:15 AM 51.8 °F 50.0 °F 94% 29.92 in 7.0 mi North - - N/A   Overcast
3:35 AM 51.8 °F 50.0 °F 94% 29.92 in 7.0 mi North - - N/A   Overcast
3:55 AM 51.8 °F 50.0 °F 94% 29.92 in 8.0 mi North - - N/A   Overcast
4:15 AM 51.8 °F 50.0 °F 94% 29.92 in 8.0 mi North - - N/A   Overcast
4:35 AM 51.8 °F 50.0 °F 94% 29.92 in 8.0 mi North - - N/A   Overcast
4:55 AM 51.8 °F 50.0 °F 94% 29.92 in 8.0 mi North - - N/A   Overcast
5:15 AM 51.8 °F 50.0 °F 94% 29.92 in 8.0 mi North - - N/A   Overcast
5:35 AM 50.0 °F 50.0 °F 100% 29.92 in 4.0 mi North - - N/A   Overcast
5:55 AM 50.0 °F 50.0 °F 100% 29.92 in 3.0 mi North - - N/A   Overcast
6:15 AM 50.0 °F 50.0 °F 100% 29.92 in 2.0 mi North - - N/A   Overcast
6:35 AM 50.0 °F 50.0 °F 100% 29.93 in 2.5 mi North - - N/A   Overcast
6:55 AM 50.0 °F 50.0 °F 100% 29.92 in 3.0 mi North - - N/A   Overcast
7:15 AM 50.0 °F 50.0 °F 100% 29.93 in 2.5 mi North - - N/A   Overcast
7:35 AM 50.0 °F 50.0 °F 100% 29.92 in 3.0 mi North - - N/A   Overcast
7:55 AM 50.0 °F 50.0 °F 100% 29.92 in 3.0 mi North - - N/A   Overcast
8:15 AM 50.0 °F 50.0 °F 100% 29.92 in 3.0 mi North - - N/A   Overcast
8:35 AM 50.0 °F 50.0 °F 100% 29.92 in 3.0 mi North - - N/A   Overcast
8:55 AM 51.8 °F 50.0 °F 94% 29.92 in 4.0 mi North - - N/A   Overcast
9:15 AM 51.8 °F 50.0 °F 94% 29.92 in 5.0 mi North - - N/A   Overcast
9:35 AM 53.6 °F 50.0 °F 88% 29.92 in 6.0 mi North - - N/A   Overcast
9:55 AM 53.6 °F 50.0 °F 88% 29.92 in 7.0 mi North - - N/A   Overcast
10:15 AM 53.6 °F 50.0 °F 88% 29.92 in 7.0 mi North - - N/A   Overcast
10:35 AM 55.4 °F 50.0 °F 82% 29.92 in 8.0 mi North - - N/A   Overcast
10:55 AM 55.4 °F 51.8 °F 88% 29.93 in 7.0 mi North - - N/A   Mostly Cloudy
11:15 AM 55.4 °F 51.8 °F 88% 29.94 in 5.0 mi North - - N/A   Mostly Cloudy
11:35 AM 55.4 °F 51.8 °F 88% 29.94 in 5.0 mi North - - N/A   Mostly Cloudy
11:55 AM 57.2 °F 50.0 °F 77% 29.94 in 6.0 mi North - - N/A   Mostly Cloudy
12:15 PM 57.2 °F 51.8 °F 82% 29.94 in 8.0 mi North - - N/A   Mostly Cloudy
12:35 PM 59.0 °F 51.8 °F 77% 29.94 in 8.0 mi North - - N/A   Overcast
12:55 PM 59.0 °F 51.8 °F 77% 29.94 in 9.0 mi North - - N/A   Mostly Cloudy
1:15 PM 59.0 °F 51.8 °F 77% 29.94 in 9.0 mi North - - N/A   Scattered Clouds
1:35 PM 60.8 °F 51.8 °F 72% 29.94 in 9.0 mi North - - N/A   Clear
1:55 PM 62.6 °F 51.8 °F 68% 29.94 in 10.0 mi North - - N/A   Partly Cloudy
2:15 PM 60.8 °F 51.8 °F 72% 29.94 in 10.0 mi North - - N/A   Clear
2:35 PM 62.6 °F 51.8 °F 68% 29.93 in 10.0 mi North - - N/A   Clear
2:55 PM 62.6 °F 51.8 °F 68% 29.93 in 10.0 mi North - - N/A   Clear
3:15 PM 60.8 °F 51.8 °F 72% 29.94 in 10.0 mi North - - N/A   Clear
3:35 PM 62.6 °F 51.8 °F 68% 29.93 in 10.0 mi North - - N/A   Clear
3:55 PM 62.6 °F 51.8 °F 68% 29.93 in 10.0 mi North - - N/A   Clear
4:15 PM 62.6 °F 51.8 °F 68% 29.93 in 10.0 mi North - - N/A   Clear
4:35 PM 60.8 °F 51.8 °F 72% 29.93 in 10.0 mi North - - N/A   Clear
4:55 PM 60.8 °F 50.0 °F 68% 29.93 in 10.0 mi North - - N/A   Clear
5:15 PM 60.8 °F 51.8 °F 72% 29.93 in 10.0 mi North - - N/A   Clear
5:35 PM 59.0 °F 50.0 °F 72% 29.93 in 10.0 mi North - - N/A   Clear
5:55 PM 59.0 °F 50.0 °F 72% 29.93 in 10.0 mi North - - N/A   Clear
6:15 PM 59.0 °F 50.0 °F 72% 29.93 in 10.0 mi North - - N/A   Clear
6:35 PM 59.0 °F 50.0 °F 72% 29.92 in 10.0 mi North - - N/A   Clear
6:55 PM 57.2 °F 50.0 °F 77% 29.92 in 9.0 mi North - - N/A   Clear
7:15 PM 57.2 °F 50.0 °F 77% 29.92 in 9.0 mi North - - N/A   Clear
7:35 PM 55.4 °F 50.0 °F 82% 29.92 in 8.0 mi North - - N/A   Clear
7:55 PM 55.4 °F 50.0 °F 82% 29.92 in 8.0 mi North - - N/A   Clear
8:10 PM 55.4 °F 50.0 °F 82% 29.92 in 8.0 mi North - - N/A   Clear
8:30 PM 53.6 °F 50.0 °F 88% 29.91 in 7.0 mi North - - N/A   Clear
8:55 PM 53.6 °F 50.0 °F 88% 29.91 in 7.0 mi North - - N/A   Scattered Clouds
9:15 PM 53.6 °F 50.0 °F 88% 29.91 in 8.0 mi North - - N/A   Mostly Cloudy
9:35 PM 51.8 °F 50.0 °F 94% 29.91 in 8.0 mi North - - N/A   Mostly Cloudy
9:55 PM 51.8 °F 50.0 °F 94% 29.91 in 8.0 mi North - - N/A   Scattered Clouds
10:15 PM 50.0 °F 48.2 °F 94% 29.91 in 8.0 mi North - - N/A   Mostly Cloudy
10:35 PM 51.8 °F 50.0 °F 94% 29.91 in 8.0 mi North - - N/A   Overcast
10:55 PM 53.6 °F 50.0 °F 88% 29.91 in 8.0 mi North - - N/A   Overcast
11:15 PM 53.6 °F 50.0 °F 88% 29.91 in 9.0 mi North - - N/A   Overcast
11:35 PM 53.6 °F 50.0 °F 88% 29.90 in 8.0 mi North - - N/A   Overcast
11:55 PM 53.6 °F 50.0 °F 88% 29.90 in 9.0 mi North - - N/A   Overcast